This is the latest recevied weather packets stored in our database for station/object DG8SBT-13. If no packets are shown the sender has not sent any weather packets the latest 10 day(s).
| Time | Temp. | Humidity | Pressure | Rain* | Wind** | Luminosity | Snow |
|---|---|---|---|---|---|---|---|
| 1777633289 | 24.44° C | 26% | 1026.9 hPa | - | - | - | - |
| 1777631496 | 23.89° C | 28% | 1027.1 hPa | - | - | - | - |
| 1777629705 | 22.78° C | 28% | 1027.4 hPa | - | - | - | - |
| 1777627916 | 22.22° C | 28% | 1027.5 hPa | - | - | - | - |
| 1777626125 | 21.67° C | 28% | 1027.7 hPa | - | - | - | - |
| 1777624335 | 21.11° C | 28% | 1027.8 hPa | - | - | - | - |
| 1777622542 | 20.56° C | 30% | 1027.6 hPa | - | - | - | - |
| 1777620749 | 20° C | 32% | 1027.4 hPa | - | - | - | - |
| 1777618960 | 20° C | 41% | 1027.5 hPa | - | - | - | - |
| 1777615378 | 18.89° C | 35% | 1027.7 hPa | - | - | - | - |
| 1777613585 | 18.89° C | 33% | 1027.6 hPa | - | - | - | - |
| 1777611796 | 18.89° C | 33% | 1027.4 hPa | - | - | - | - |
| 1777610007 | 18.89° C | 32% | 1027.3 hPa | - | - | - | - |
| 1777608216 | 18.89° C | 31% | 1027.1 hPa | - | - | - | - |
| 1777606426 | 18.89° C | 30% | 1027.2 hPa | - | - | - | - |
| 1777604635 | 19.44° C | 30% | 1027.2 hPa | - | - | - | - |
| 1777602846 | 19.44° C | 30% | 1027.1 hPa | - | - | - | - |
| 1777601058 | 20° C | 29% | 1027.1 hPa | - | - | - | - |
| 1777599268 | 20.56° C | 29% | 1027.1 hPa | - | - | - | - |
| 1777597477 | 21.11° C | 28% | 1027.2 hPa | - | - | - | - |
| 1777595688 | 21.11° C | 28% | 1027.2 hPa | - | - | - | - |
| 1777593899 | 21.67° C | 28% | 1027.3 hPa | - | - | - | - |
| 1777592108 | 21.67° C | 28% | 1027.3 hPa | - | - | - | - |
| 1777590317 | 21.67° C | 28% | 1027.1 hPa | - | - | - | - |
| 1777588528 | 21.67° C | 28% | 1027.1 hPa | - | - | - | - |
* Rain since midnight (hover to see other rain measurements)
** Current wind speed in m/s (hover to see current wind gust speed)